Tracking 29892 objects as of 21-Nov-2024
HD Live streaming from Space Station
objects crossing your sky now

NOAA 16 DEB

Track NOAA 16 DEB now!
10-day predictions


NORAD ID: 41216
Int'l Code: 2000-055DV
Perigee: 837.8 km
Apogee: 988.1 km
Inclination: 98.9 °
Period: 103.1 minutes
Semi major axis: 7283 km
RCS: Unknown
Launch date: September 21, 2000
Source: United States (US)
Launch site: AIR FORCE WESTERN TEST RANGE (AFWTR)

Note: This is SATELLITE DEBRIS
Your satellite tracking list
Your tracking list is empty




NASA's NSSDC Master Catalog

Two Line Element Set (TLE):
1 41216U 00055DV  24325.33768052  .00004717  00000-0  32891-2 0  9998
2 41216  98.8971 281.8098 0103137 334.0710  25.5305 13.96536163454160
Source of the keplerian elements: AFSPC